[[{"header":{"parameterUnit":"m.s-1","parameterCategory":1,"la1":30.2991,"la2":30.254,"lo1":-89.0895,"lo2":-89.0444,"dy":0.0017,"dx":0.0017,"nx":28,"ny":28,"refTime":"2024-07-17T21:00:00:Z","depth":0,"parameterNumber":2,"parameterNumberName":"U-component_of_WINDS"},"data":[0,0,0,0,0,0,0,0,0,0,0,0,0,0,0,0,0,0,0,0,0,0,0,0,0,0,0,0,0,0,0,0,0,0,0,0,0,0,0,0,0,0,0,0,0,0,0,0,0,0,0,0,0,0,0,0,0,0,1.7478,1.7478,0,1.7468,1.7468,1.7468,1.7457,1.7457,1.7456,1.7456,1.7445,1.7445,1.7445,0,0,0,0,0,0,0,0,0,0,0,0,0,1.7483,1.7483,1.7478,1.7478,1.7477,1.7468,1.7468,1.7468,1.7457,1.7457,1.7456,1.7456,1.7445,1.7445,1.7445,0,0,0,0,0,0,0,0,0,0,0,0,0,1.7478,1.7483,1.7478,1.7471,1.747,1.7468,1.7468,1.7468,1.7457,1.7457,1.7456,1.7456,1.7445,1.7445,1.7445,1.7448,0,0,1.7444,1.7444,0,0,0,0,0,0,0,0,1.7478,1.7477,1.7472,1.7471,1.7471,1.7463,1.7466,1.7461,1.7457,1.7462,1.7456,1.7456,1.7451,1.7451,1.7449,1.7448,1.7447,1.7444,1.7444,1.7444,1.7444,0,0,0,0,0,0,0,1.7478,1.7478,1.7474,1.7472,1.7471,1.7467,1.7466,1.7465,1.7458,1.7461,1.7461,1.746,1.7451,1.745,1.7449,1.7447,1.7444,1.7444,1.7444,1.7444,1.7444,1.7445,0,0,0,0,0,0,1.748,1.7478,1.7474,1.7474,1.7474,1.7467,1.7466,1.7466,1.7458,1.7457,1.746,1.7459,1.745,1.7449,1.7449,1.745,1.7444,1.7444,1.7444,1.7444,1.7444,1.7445,0,0,0,0,0,0,1.748,1.748,1.7475,1.7476,1.7475,1.7467,1.7467,1.7466,1.7465,1.7457,1.7455,1.746,1.745,1.7449,1.7448,1.745,1.7444,1.7443,1.7444,1.7444,1.7445,1.7454,0,0,0,0,0,0,1.748,1.748,1.7482,1.7476,1.7475,1.7475,1.7467,1.7466,1.7464,1.7463,1.7457,1.7455,1.745,1.7448,1.7448,1.7449,1.7443,1.7444,1.7444,1.7444,1.7454,1.7455,1.7456,0,0,0,0,0,1.7481,1.7486,1.7483,1.7482,1.7478,1.7475,1.7475,1.7468,1.7465,1.7466,1.746,1.7455,1.7449,1.7448,1.7447,1.7449,1.7444,1.7444,1.7444,1.7453,1.7455,1.7456,0,0,0,0,0,0,1.7494,1.7485,1.7481,1.7485,1.7481,1.7474,1.7476,1.747,1.7467,1.7466,1.7458,1.7457,1.7456,1.7452,1.7451,1.745,1.7446,1.7446,1.7453,1.7454,1.7455,1.7455,1.7443,0,0,0,0,0,1.7497,1.7496,1.7489,1.7493,1.7491,1.7483,1.7482,1.7477,1.7473,1.7471,1.7466,1.7461,1.7457,1.7455,1.7452,1.7453,1.745,1.7453,1.7454,1.7455,1.7455,1.7453,1.7453,1.7446,1.7446,1.7446,0,0,1.7504,1.7499,1.7499,1.7495,1.7491,1.749,1.7482,1.7482,1.748,1.7471,1.7469,1.7465,1.7458,1.7457,1.7457,1.7454,1.7456,1.7455,1.7456,1.7456,1.7453,1.7454,1.7454,1.7446,1.7446,1.7446,0,0,1.7515,1.7512,1.7514,1.7509,1.7504,1.7498,1.7498,1.7491,1.7488,1.7486,1.7478,1.7475,1.747,1.7465,1.7462,1.7467,1.7462,1.7467,1.7472,1.7469,1.747,1.747,1.747,1.7471,1.7467,1.7467,1.7467,0,1.7524,1.7522,1.7515,1.7514,1.7511,1.7502,1.7502,1.7499,1.7492,1.7489,1.7487,1.7478,1.7474,1.747,1.7471,1.7469,1.7468,1.7468,1.747,1.7471,1.7471,1.7471,1.7471,1.7467,1.7467,1.7467,1.7467,0,1.7532,1.7531,1.7533,1.7526,1.7523,1.7523,1.7514,1.7512,1.7506,1.75,1.7497,1.749,1.7484,1.7483,1.7478,1.7478,1.7476,1.7472,1.7467,1.7472,1.7472,1.7472,1.7468,1.7468,1.7468,1.7468,0,0,1.7553,1.754,1.7541,1.7536,1.7528,1.7526,1.7524,1.7517,1.7515,1.751,1.7506,1.7501,1.7496,1.7492,1.7486,1.7484,1.7486,1.748,1.7479,1.748,1.7482,1.7485,1.7485,1.7482,1.7482,1.7482,1.7482,0,1.7562,1.7559,1.7551,1.7549,1.7546,1.7536,1.7534,1.7527,1.7521,1.7516,1.7509,1.7505,1.75,1.7497,1.7494,1.7486,1.7486,1.7486,1.7477,1.7477,1.7479,1.7486,1.7489,1.749,1.7482,1.7482,1.7482,0,1.7573,1.7567,1.7565,1.7554,1.7552,1.755,1.7542,1.7539,1.753,1.7525,1.752,1.7512,1.7508,1.7503,1.7495,1.7495,1.7491,1.7486,1.7486,1.7484,1.748,1.7483,1.749,1.749,1.7483,1.7483,1.7483,0,1.7586,1.7578,1.7575,1.7571,1.7559,1.7557,1.7552,1.7543,1.7538,1.7531,1.7528,1.752,1.7515,1.7509,1.7499,1.7497,1.7491,1.7486,1.7486,1.7486,1.7485,1.7485,1.7491,1.7483,1.7483,1.7483,1.7483,0,1.7596,1.7595,1.758,1.7578,1.7576,1.7565,1.7562,1.7556,1.7547,1.7543,1.7533,1.7529,1.7516,1.751,1.7502,1.7495,1.7494,1.7489,1.7486,1.7489,1.749,1.7486,1.7485,1.7483,1.7483,1.7483,1.7483,0,1.7611,1.7601,1.7597,1.7584,1.7581,1.7579,1.7568,1.7565,1.7557,1.7551,1.7549,1.7536,1.7528,1.7517,1.7506,1.75,1.7494,1.7491,1.7497,1.7495,1.7495,1.7494,1.7497,1.7496,1.7491,1.7491,1.7491,0,1.7617,1.7616,1.7603,1.7599,1.7593,1.7588,1.7583,1.7571,1.7566,1.7555,1.7552,1.7543,1.7535,1.7522,1.7511,1.7501,1.7497,1.7499,1.7496,1.7498,1.7496,1.7496,1.7494,1.75,1.75,1.75,1.75,0,1.763,1.7624,1.7618,1.7609,1.7603,1.7596,1.7588,1.7585,1.7572,1.7566,1.7557,1.7551,1.7538,1.7528,1.7517,1.7509,1.7502,1.7501,1.75,1.7503,1.7505,1.7502,1.7498,1.7501,1.7501,1.7501,1.7501,1.7501,1.764,1.7637,1.7626,1.7619,1.7611,1.7603,1.7599,1.759,1.7582,1.7571,1.7564,1.7555,1.7543,1.7527,1.7519,1.7511,1.7508,1.7508,1.7507,1.7507,1.7507,1.7507,1.7509,1.7509,1.7509,1.7509,1.7509,0,1.765,1.7642,1.7635,1.7624,1.7617,1.761,1.76,1.7595,1.7587,1.7577,1.7568,1.7557,1.7546,1.7534,1.7522,1.7518,1.7514,1.7515,1.7515,1.7513,1.7511,1.7512,1.7518,1.7518,1.7518,1.7518,1.7518,1.7518,1.7655,1.7649,1.7642,1.7631,1.7623,1.7614,1.7608,1.76,1.7592,1.7579,1.757,1.7562,1.755,1.7537,1.7527,1.7523,1.7519,1.7521,1.7516,1.7514,1.7513,1.7513,1.7514,1.752,1.752,1.7519,1.7519,1.7519]},{"header":{"parameterUnit":"m.s-1","parameterCategory":1,"la1":30.2991,"la2":30.254,"lo1":-89.0895,"lo2":-89.0444,"dy":0.0017,"dx":0.0017,"nx":28,"ny":28,"refTime":"2024-07-17T21:00:00:Z","depth":0,"parameterNumber":3,"parameterNumberName":"V-component_of_WINDS"},"data":[0,0,0,0,0,0,0,0,0,0,0,0,0,0,0,0,0,0,0,0,0,0,0,0,0,0,0,0,0,0,0,0,0,0,0,0,0,0,0,0,0,0,0,0,0,0,0,0,0,0,0,0,0,0,0,0,0,0,2.4952,2.4952,0,2.4998,2.4999,2.4999,2.5036,2.5037,2.5037,2.5038,2.5082,2.5082,2.5083,0,0,0,0,0,0,0,0,0,0,0,0,0,2.4891,2.4892,2.4952,2.4952,2.4953,2.4998,2.4999,2.4999,2.5036,2.5037,2.5037,2.5038,2.5081,2.5082,2.5083,0,0,0,0,0,0,0,0,0,0,0,0,0,2.4925,2.4892,2.4952,2.4977,2.498,2.4998,2.4999,2.4999,2.5036,2.5037,2.5037,2.5038,2.5081,2.5082,2.5083,2.5079,0,0,2.5087,2.5088,0,0,0,0,0,0,0,0,2.4923,2.4927,2.4973,2.4975,2.4978,2.5012,2.4993,2.5026,2.5036,2.5015,2.5038,2.5038,2.5058,2.5061,2.5068,2.5081,2.5083,2.5087,2.5088,2.5089,2.5089,0,0,0,0,0,0,0,2.4921,2.4925,2.497,2.4973,2.4977,2.4984,2.499,2.5,2.5032,2.5017,2.5019,2.5025,2.5059,2.5067,2.507,2.5084,2.5087,2.5088,2.5089,2.509,2.5093,2.5093,0,0,0,0,0,0,2.4915,2.4923,2.4969,2.4971,2.4952,2.4985,2.4991,2.5001,2.5032,2.5038,2.5024,2.5026,2.5065,2.5068,2.5071,2.5067,2.5089,2.509,2.509,2.5094,2.5093,2.5092,0,0,0,0,0,0,2.4913,2.4919,2.4967,2.4948,2.4955,2.4985,2.4996,2.5001,2.5009,2.5038,2.5044,2.5026,2.5065,2.507,2.5077,2.5069,2.509,2.5091,2.5095,2.5094,2.5093,2.5059,0,0,0,0,0,0,2.4912,2.4918,2.4918,2.4948,2.4956,2.4973,2.4995,2.5002,2.5011,2.5014,2.5041,2.5046,2.5066,2.5075,2.5078,2.5071,2.5092,2.5095,2.5094,2.5093,2.5061,2.5057,2.5054,0,0,0,0,0,2.4909,2.4907,2.4918,2.4923,2.4957,2.4972,2.4977,2.5,2.5011,2.501,2.5028,2.5045,2.5069,2.5075,2.5079,2.5073,2.5096,2.5094,2.5093,2.5063,2.5058,2.5054,0,0,0,0,0,0,2.4875,2.4911,2.4924,2.4931,2.4948,2.4979,2.4979,2.4995,2.5009,2.5011,2.5039,2.5044,2.5048,2.5061,2.5067,2.5069,2.5085,2.5084,2.506,2.5056,2.5053,2.5049,2.5093,0,0,0,0,0,2.4868,2.4879,2.491,2.4913,2.4921,2.4948,2.4956,2.4972,2.4991,2.4998,2.5017,2.5033,2.5044,2.5051,2.5063,2.5063,2.5068,2.506,2.5057,2.5054,2.5053,2.5051,2.5048,2.5088,2.5088,2.5088,0,0,2.4854,2.4875,2.488,2.4906,2.4922,2.493,2.4954,2.4963,2.4969,2.4999,2.5007,2.5021,2.5041,2.5044,2.5046,2.5055,2.5043,2.5052,2.5049,2.505,2.505,2.5046,2.5042,2.5087,2.5087,2.5087,0,0,2.4833,2.4851,2.4855,2.4869,2.4892,2.491,2.491,2.4938,2.4949,2.4957,2.4979,2.4986,2.5005,2.5018,2.5026,2.5007,2.5023,2.501,2.4991,2.499,2.4987,2.4984,2.4976,2.4973,2.5009,2.5009,2.5009,0,2.4813,2.4828,2.4854,2.4862,2.4871,2.4899,2.4901,2.4914,2.4939,2.4944,2.4954,2.4977,2.4992,2.4998,2.4993,2.5,2.5,2.5007,2.4985,2.4983,2.4981,2.4973,2.497,2.5007,2.5008,2.5008,2.5008,0,2.4801,2.4811,2.4811,2.4835,2.4845,2.485,2.4875,2.4881,2.4896,2.4912,2.4919,2.4938,2.4953,2.4956,2.4971,2.4963,2.4967,2.4981,2.4997,2.4975,2.4968,2.4965,2.5005,2.5005,2.5006,2.5006,0,0,2.4761,2.4798,2.4797,2.4807,2.4833,2.4841,2.4846,2.4861,2.4865,2.4881,2.4885,2.4899,2.4911,2.4921,2.4937,2.4936,2.4918,2.495,2.4951,2.4942,2.4908,2.4897,2.4893,2.4928,2.4928,2.4928,2.4906,0,2.4744,2.4756,2.4778,2.4782,2.479,2.4815,2.4819,2.4834,2.4849,2.4857,2.4872,2.4882,2.4898,2.4904,2.4904,2.492,2.4911,2.4922,2.493,2.493,2.4924,2.489,2.4879,2.4857,2.4903,2.4903,2.4903,0,2.4725,2.4739,2.4744,2.4768,2.4772,2.4775,2.479,2.4798,2.4815,2.4825,2.4835,2.4853,2.4857,2.4872,2.4878,2.4885,2.4889,2.4897,2.4897,2.4898,2.4915,2.4889,2.4851,2.4847,2.4899,2.4899,2.49,0,2.4694,2.4714,2.4719,2.4727,2.4755,2.4756,2.4767,2.4785,2.4792,2.4804,2.4809,2.4821,2.4828,2.4836,2.4856,2.4865,2.4858,2.4876,2.4866,2.4865,2.4863,2.4862,2.4824,2.4867,2.4867,2.4867,2.4867,0,2.4672,2.4673,2.4705,2.4708,2.4709,2.4734,2.4734,2.4748,2.4763,2.4767,2.4789,2.4793,2.4819,2.4825,2.484,2.4841,2.4844,2.4852,2.4856,2.4849,2.4848,2.4852,2.4854,2.4866,2.4866,2.4867,2.4867,0,2.4637,2.4659,2.4665,2.469,2.4697,2.4696,2.4717,2.472,2.4735,2.474,2.4743,2.4766,2.4774,2.4795,2.4808,2.4818,2.4815,2.4823,2.4809,2.4811,2.48,2.48,2.4762,2.4758,2.4804,2.4804,2.4803,0,2.4621,2.4623,2.4648,2.4653,2.4663,2.4671,2.4678,2.4701,2.4707,2.4725,2.4725,2.4735,2.4744,2.4755,2.4773,2.4782,2.479,2.4776,2.4791,2.4784,2.4788,2.4787,2.4787,2.4772,2.4772,2.4771,2.4771,0,2.459,2.46,2.461,2.4623,2.463,2.4641,2.4654,2.4656,2.4682,2.4687,2.4696,2.4703,2.4716,2.4724,2.4736,2.4747,2.4762,2.4765,2.4763,2.4757,2.4748,2.4751,2.4799,2.4766,2.4767,2.4767,2.4767,2.4767,2.4564,2.4566,2.4583,2.4592,2.4604,2.4614,2.4617,2.4632,2.464,2.4653,2.4665,2.4672,2.4686,2.4704,2.4713,2.4717,2.4726,2.4723,2.4722,2.4721,2.4717,2.4748,2.472,2.472,2.472,2.472,2.472,0,2.4533,2.4545,2.4553,2.4569,2.4576,2.459,2.4604,2.4608,2.4614,2.4626,2.4634,2.4642,2.4651,2.4668,2.4677,2.4677,2.4684,2.4679,2.4678,2.468,2.471,2.4711,2.4672,2.4672,2.4672,2.4672,2.4673,2.4673,2.4518,2.4521,2.4532,2.454,2.4552,2.4559,2.4565,2.4573,2.4583,2.4592,2.4599,2.461,2.4624,2.4634,2.4641,2.4646,2.4647,2.4639,2.4646,2.4674,2.4678,2.4683,2.4683,2.464,2.4639,2.4615,2.4615,2.4615]}]]